Location: Newark
(48.8656°N, 2.3211°E)
Time: 06:44:47
(UTC+00:00)

Envisat - Pass Details

Date: 17 December 2019
Orbit: 764 x 766 km, 98.1° (Epoch: 20 January)

Event Time Altitude Azimuth Distance (km) Brightness Sun altitude
Rises 06:57:43 0° 12° (NNE) 3,246 6.1 -6.5°
Reaches altitude 10° 07:00:02 10° 12° (NNE) 2,315 5.3 -6.2°
Maximum altitude 07:05:08 79° 286° (WNW) 786 3.0 -5.5°
Drops below altitude 10° 07:10:11 10° 201° (SSW) 2,297 5.6 -4.8°
Sets 07:12:29 0° 200° (SSW) 3,218 6.4 -4.4°
